Weather History for KBHM - February, 2014

Change the Weather History Date:

Tuesday, February 4, 2014

  Actual Average Record
Temperature  
Mean Temperature 47 °F 45 °F  
Max Temperature 61 °F 56 °F 77 °F (1927)
Min Temperature 33 °F 35 °F 4 °F (1996)
Degree Days  
Heating Degree Days 18 20  
Month to date heating degree days 59 80  
Since 1 July heating degree days 2030 1785  
Moisture  
Dew Point 47 °F    
Average Humidity 90    
Maximum Humidity 100    
Minimum Humidity 80    
Precipitation  
Precipitation 0.24 in 0.16 in 3.74 in (1971)
Month to date precipitation 2.11 0.65  
Year to date precipitation 3.67 5.49  
Snow  
Snow 0.00 in 0.00 in - ()
Month to date snowfall 0.0 0.0  
Since 1 July snowfall 2.0 0.7  
Snow Depth 0.00 in    
Sea Level Pressure  
Sea Level Pressure 30.01 in    
Wind  
Wind Speed 7 mph (ESE)    
Max Wind Speed 24 mph    
Max Gust Speed 33 mph    
Visibility 6 miles    
Events Rain    
T = Trace of Precipitation, MM = Missing Value Source: NWS Daily Summary

Daily Weather History Graph

Daily Weather History Graph

Search for Another Location

Airport or City:

Trip Planner

Search our weather history database for the weather conditions in past years. The results will help you decide how hot, cold, wet, or windy it might be!

Date:

Astronomy

Feb. 04, 2014 Rise Set
Actual Time 6:40 AM CST 5:21 PM CST
Civil Twilight 6:15 AM CST 5:47 PM CST
Nautical Twilight 5:45 AM CST 6:16 PM CST
Astronomical Twilight 5:16 AM CST 6:46 PM CST
Moon 9:36 AM CST (2/4) 10:55 PM CST (2/4)
Length of Visible Light 11h 32m
Length of Day
10h 40m
Waxing Crescent, 29% of the Moon is Illuminated
Feb 4
Waxing Crescent
Feb 6
First Quarter
Feb 14
Full
Feb 22
Last Quarter
Mar 1
New

Hourly Weather History & Observations

Time (CST) Temp. Windchill Dew Point Humidity Pressure Visibility Wind Dir Wind Speed Gust Speed Precip Events Conditions
12:53 AM 35.1 °F - 32.0 °F 89% 30.18 in 6.0 mi Calm Calm - N/A   Scattered Clouds
1:53 AM 34.0 °F 31.0 °F 32.0 °F 92% 30.17 in 5.0 mi North 3.5 mph - N/A   Scattered Clouds
2:53 AM 34.0 °F - 33.1 °F 96% 30.14 in 5.0 mi Calm Calm - N/A   Scattered Clouds
3:53 AM 35.1 °F 32.2 °F 32.0 °F 89% 30.14 in 6.0 mi North 3.5 mph - N/A   Scattered Clouds
4:53 AM 39.9 °F 35.8 °F 35.1 °F 83% 30.15 in 10.0 mi NNE 5.8 mph - N/A   Overcast
5:45 AM 39.2 °F 35.9 °F 35.6 °F 87% 30.15 in 10.0 mi Variable 4.6 mph - N/A   Overcast
5:53 AM 39.9 °F 35.1 °F 35.1 °F 83% 30.16 in 8.0 mi ENE 6.9 mph - N/A   Overcast
6:22 AM 39.2 °F 34.2 °F 35.6 °F 87% 30.17 in 5.0 mi NE 6.9 mph - N/A   Overcast
6:53 AM 39.9 °F 37.8 °F 37.0 °F 89% 30.17 in 3.0 mi ENE 3.5 mph - N/A   Overcast
7:30 AM 39.2 °F 35.0 °F 37.4 °F 93% 30.16 in 4.0 mi ENE 5.8 mph - 0.00 in   Light Drizzle
7:50 AM 41.0 °F 38.0 °F 37.4 °F 87% 30.15 in 4.0 mi NNE 4.6 mph - 0.00 in   Overcast
7:53 AM 41.0 °F 36.4 °F 37.9 °F 89% 30.16 in 5.0 mi NE 6.9 mph - 0.00 in   Overcast
8:53 AM 44.1 °F 38.6 °F 39.0 °F 82% 30.13 in 8.0 mi East 10.4 mph - N/A   Overcast
9:42 AM 46.4 °F 43.5 °F 39.2 °F 76% 30.12 in 9.0 mi East 5.8 mph - N/A   Overcast
9:53 AM 46.0 °F 42.5 °F 41.0 °F 83% 30.12 in 7.0 mi East 6.9 mph - N/A   Overcast
10:53 AM 48.0 °F - 43.0 °F 83% 30.08 in 10.0 mi East 8.1 mph - N/A   Overcast
11:53 AM 51.1 °F - 46.0 °F 83% 30.03 in 6.0 mi East 5.8 mph - N/A   Overcast
12:53 PM 52.0 °F - 48.0 °F 86% 30.00 in 6.0 mi ESE 5.8 mph - N/A   Overcast
1:53 PM 53.1 °F - 48.9 °F 86% 29.98 in 4.0 mi ESE 4.6 mph - N/A   Overcast
2:25 PM 53.6 °F - 51.8 °F 94% 29.97 in 2.0 mi ESE 6.9 mph - N/A   Overcast
2:53 PM 54.0 °F - 51.1 °F 90% 29.96 in 2.0 mi SE 9.2 mph - N/A   Overcast
3:53 PM 55.9 °F - 54.0 °F 93% 29.94 in 2.0 mi SE 6.9 mph 17.3 mph N/A   Overcast
4:48 PM 55.4 °F - 53.6 °F 94% 29.94 in 1.5 mi SSE 9.2 mph 21.9 mph 0.00 in   Light Drizzle
4:53 PM 55.9 °F - 55.0 °F 97% 29.94 in 1.5 mi SE 8.1 mph 21.9 mph 0.00 in   Light Drizzle
5:17 PM 55.4 °F - 55.4 °F 100% 29.93 in 2.0 mi SSE 5.8 mph - 0.00 in   Light Drizzle
5:53 PM 57.0 °F - 55.0 °F 93% 29.92 in 2.0 mi SSE 9.2 mph 18.4 mph 0.00 in   Overcast
6:53 PM 57.9 °F - 55.9 °F 93% 29.91 in 10.0 mi SE 11.5 mph 17.3 mph N/A   Overcast
7:53 PM 59.0 °F - 57.0 °F 93% 29.89 in 10.0 mi SSE 12.7 mph 24.2 mph N/A   Overcast
8:53 PM 60.1 °F - 57.9 °F 93% 29.88 in 10.0 mi SSE 15.0 mph 23.0 mph N/A   Overcast
9:53 PM 60.1 °F - 57.9 °F 93% 29.92 in 7.0 mi South 12.7 mph 24.2 mph 0.01 in Rain Light Rain
10:19 PM 60.8 °F - 57.2 °F 88% 29.91 in 6.0 mi SSE 8.1 mph - 0.04 in Rain Rain
10:28 PM 60.8 °F - 57.2 °F 88% 29.88 in 5.0 mi SE 10.4 mph - 0.07 in Rain Rain
10:53 PM 60.1 °F - 57.9 °F 93% 29.86 in 5.0 mi South 6.9 mph 23.0 mph 0.10 in Rain Rain
11:06 PM 60.8 °F - 57.2 °F 88% 29.86 in 6.0 mi SSE 9.2 mph 18.4 mph 0.04 in Rain Light Rain
11:27 PM 60.8 °F - 57.2 °F 88% 29.81 in 3.0 mi SE 15.0 mph 23.0 mph 0.12 in Rain Rain
11:51 PM 60.8 °F - 57.2 °F 88% 29.83 in 10.0 mi South 9.2 mph 17.3 mph 0.13 in   Overcast
11:53 PM 61.0 °F - 57.9 °F 90% 29.83 in 10.0 mi South 10.4 mph 16.1 mph 0.13 in Rain Light Rain